Location: Unspecified
(50.1700°N, 6.8600°E)
Time: 08:26:37
(UTC+00:00)

CZ-4B DEB - Pass Details

Date: 24 January 2019
Orbit: 841 x 862 km, 99.1° (Epoch: 17 October)

Event Time Altitude Azimuth Distance (km) Brightness Sun altitude
Rises 04:51:56 0° 13° (NNE) 3,434 7.5 -23.0°
Reaches altitude 10° 04:54:20 10° 11° (N) 2,491 6.7 -22.6°
Maximum altitude 04:59:48 67° 290° (WNW) 918 4.1 -21.8°
Drops below altitude 10° 05:05:13 10° 209° (SSW) 2,461 6.4 -20.9°
Sets 05:07:34 0° 207° (SSW) 3,389 7.1 -20.5°
